Current weather by "City, St" or "zip code"  
 

Current Conditions: El Paso, El Paso International Airport, TX

A Few Clouds


74.0 F

Last Updated on Sep 17 2020, 11:51 pm MDT
Humidity: 45%
Wind Speed: N 0.0 mph
Barometer 30.20 in
Dewpoint: 51.1 F
Visibility: 10.00 mi
Precip: --
Heat Index: NA
Wind Chill: NA
Current conditions at:

El Paso, El Paso International Airport, TX (KELP)

Lat: 31.81111 Lon: 106.37583

Local Radar Image active severe weather and emergency alerts image image weather storm and storm spotter reports image weather observation monitoring service image
Local
Radar
Active
Alerts
Storm Reports Obs
Monitoring

Sign-up For Email & Text Message Weather Alert Notification Services



Advertise Here

Observation History for El Paso, El Paso International Airport, TX


Time Wind
(mph)
Vis
(mi)
Weather Precip (in) Temperature (F) Relative
Humidity
Wind
Chill
(F)
Heat
Index
(F)
Pressure
Air Dwpt altimeter
(in)
sea level
(mb)
Rmks
11:51 pm MDT N 0.0 10.00 A Few Clouds -- 74.0 51.1 45% NA NA 30.20 1015.4
10:51 pm MDT SE 10.4 10.00 Fair -- 76.0 48.0 37% NA NA 30.19 1015.3
9:51 pm MDT E 5.8 10.00 A Few Clouds -- 75.0 44.1 33% NA NA 30.17 1015.1
8:51 pm MDT E 6.9 10.00 A Few Clouds -- 80.0 43.0 27% NA 79 30.16 1014.5
7:51 pm MDT E 5.8 10.00 A Few Clouds -- 83.0 39.9 22% NA 81 30.13 1013.5
6:51 pm MDT N 9.2 10.00 A Few Clouds -- 86.0 42.1 21% NA 83 30.11 1012.7
5:51 pm MDT 3.5 10.00 A Few Clouds -- 88.0 42.1 20% NA 85 30.11 1012.4
4:51 pm MDT NE 4.6 10.00 A Few Clouds -- 89.0 41.0 19% NA 85 30.12 1012.6
3:51 pm MDT NE 11.5 10.00 A Few Clouds -- 89.0 39.9 18% NA 85 30.13 1012.7
2:51 pm MDT NE 9.2 10.00 A Few Clouds -- 88.0 42.1 20% NA 85 30.15 1013.3
1:51 pm MDT 4.6 G 18.4 10.00 A Few Clouds -- 86.0 42.1 21% NA 83 30.18 1014.4
12:51 pm MDT N 0.0 10.00 A Few Clouds -- 84.0 45.0 25% NA 82 30.21 1015.8
11:51 am MDT 6.9 10.00 A Few Clouds -- 83.0 45.0 26% NA 81 30.24 1016.7
10:51 am MDT N 10.4 10.00 A Few Clouds -- 80.0 45.0 29% NA 79 30.26 1017.3
9:51 am MDT N 9.2 10.00 Fair -- 75.0 46.0 36% NA NA 30.26 1017.4
8:51 am MDT N 11.5 10.00 Fair -- 70.0 50.0 49% NA NA 30.25 1017.3
7:51 am MDT N 10.4 10.00 Fair -- 67.0 48.9 53% NA NA 30.23 1017.0
6:51 am MDT N 6.9 10.00 A Few Clouds -- 65.0 48.9 56% NA NA 30.21 1016.2
5:51 am MDT N 8.1 10.00 Fair -- 66.0 48.0 52% NA NA 30.19 1015.3
4:51 am MDT N 9.2 10.00 Fair -- 67.0 46.0 47% NA NA 30.18 1014.5
3:51 am MDT N 9.2 10.00 Fair -- 68.0 46.0 45% NA NA 30.17 1014.2
2:51 am MDT N 4.6 10.00 Fair -- 71.0 51.1 49% NA NA 30.16 1013.9
1:51 am MDT N 0.0 10.00 A Few Clouds -- 73.0 50.0 44% NA NA 30.17 1014.0
12:51 am MDT E 3.5 10.00 A Few Clouds -- 73.0 48.0 41% NA NA 30.16 1014.1

Regional Weather Observation


Las Cruces, Las Cruces International Airport, NM (KLRU)

Fair
71.0 F

Holloman Air Force Base, NM (KHMN)

Fair
67.0 F

Alamogordo-White, NM (KALM)

Fair
64.0 F

Deming Municipal Airport, NM (KDMN)

Fair
61.0 F

Truth Or Consequences, Truth Or Consequences Municipal Airport, NM (KTCS)

Fair
67.0 F

Grant County Airport, NM (KSVC)

Fair
57.0 F